#timestamp,LO_Frequency,Hit,StdDev 
1548684015.4,286046996.9,N
1548684035.2,286046995.3,Y
1548684055.0,286046996.5,P
1548684056.0,286046996.5,P
1548684075.8,286046996.5,P
1548684095.6,286046995.9,Y
1548684115.5,286047000.7,P
1548684135.3,286047000.4,N
1548684155.1,286046999.0,N
1548684175.9,286046999.5,N
1548684195.7,286046998.7,N
1548684215.6,286046996.5,N
1548684235.4,286046996.6,N
1548684255.2,286046999.0,N
1548684275.1,286046998.7,N
1548684276.0,286046998.7,N
1548684295.8,286046999.4,N
1548684315.6,286046998.3,N
1548684335.5,286047000.0,N
1548684355.3,286047000.6,N
1548684375.2,286047001.6,N
1548684395.9,286047001.9,N
1548684415.7,286047001.8,N
1548684435.6,286047002.1,N
1548684455.4,286047002.4,N
1548684475.2,286046998.1,N
1548684495.1,286047000.3,N
1548684496.0,286047000.3,N
1548684515.8,286047001.8,N
1548684535.7,286047000.0,N
1548684555.5,286047000.5,N
1548684575.3,286047002.3,N
1548684595.2,286047002.6,N
1548684615.0,286047000.2,N
1548684615.9,286047000.2,N
1548684635.7,286047001.2,N
1548684655.6,286047000.9,N
1548684675.4,286047002.4,N
1548684695.3,286047000.3,N
1548684715.1,286047000.1,N
1548684716.0,286047000.1,N
1548684735.8,286046999.7,N
1548684755.7,286047002.2,N
1548684775.5,286047001.4,N
1548684795.3,286047005.9,Y
1548684815.2,286047003.1,P
1548684835.0,286047004.3,P
1548684835.9,286047004.3,N
1548684855.8,286047003.7,N
1548684875.6,286047004.2,Y
1548684895.4,286047001.2,P
1548684915.3,286046999.4,N
1548684935.1,286046999.6,N
1548684955.9,286047000.8,N
1548684975.7,286046998.3,N
1548684995.5,286046998.6,N
1548685015.4,286047000.9,N
1548685035.2,286047002.8,N
1548685055.0,286047000.3,N
1548685055.9,286047000.3,N
1548685075.8,286047002.6,N
1548685095.6,286047002.7,N
1548685115.5,286047002.4,N
1548685135.3,286047001.5,N
1548685155.1,286047004.1,N
1548685175.9,286047004.3,N
1548685195.7,286047001.9,N
1548685215.5,286047001.4,N
1548685235.4,286047002.5,N
1548685255.2,286047001.8,N
1548685275.0,286047002.5,N
1548685276.0,286047002.5,N
1548685295.8,286047002.4,N
1548685315.6,286047000.2,N
1548685335.5,286047001.8,N
1548685355.3,286047002.5,N
1548685375.1,286047002.7,N
1548685395.9,286047004.0,N
1548685415.7,286047004.2,N
1548685435.6,286047001.4,N
1548685455.4,286047001.3,N
1548685475.2,286047004.2,N
1548685495.1,286047002.9,N
1548685496.0,286047002.9,N
1548685515.8,286047005.5,Y
1548685535.6,286047002.1,P
1548685555.5,286047002.2,P
1548685575.3,286047002.2,P
1548685595.2,286047002.2,Y
1548685615.9,286047000.4,P
1548685635.7,286047000.3,N
1548685655.6,286047000.5,N
1548685675.4,286047002.0,N
1548685695.3,286047001.6,N
1548685715.1,286047000.3,N
1548685716.0,286047000.3,N
1548685735.8,286046999.7,N
1548685755.7,286046999.9,N
1548685775.5,286046999.8,N
1548685795.3,286047002.6,Y
1548685815.2,286046998.2,P
1548685835.0,286046996.9,N
1548685835.9,286046996.9,N
1548685855.8,286046998.6,N
1548685875.6,286047000.6,N
1548685895.4,286046998.2,N
1548685915.3,286046999.3,N
1548685935.1,286046998.5,N
1548685955.9,286047000.1,N
1548685975.7,286046998.8,N
1548685995.5,286046998.4,N
1548686015.4,286046998.2,N
1548686035.2,286046999.3,N
1548686055.0,286046998.8,N
1548686055.9,286046998.8,N
1548686075.8,286046999.5,N
1548686095.6,286046996.6,Y
1548686115.5,286046998.1,P
1548686135.3,286047000.6,N
1548686155.1,286046999.8,N
1548686175.9,286047001.2,N
1548686195.7,286046998.1,N
1548686215.5,286046999.7,N
1548686235.4,286047003.5,Y
1548686255.2,286047001.7,P
1548686275.1,286047003.1,N
1548686276.0,286047003.1,N
1548686295.8,286047005.3,Y
1548686315.6,286047001.8,P
1548686335.5,286047002.6,P
1548686355.3,286047001.0,N
1548686375.2,286047001.0,N
1548686395.9,286047000.3,N
1548686415.7,286046999.7,N
1548686435.6,286047000.6,N
1548686455.4,286046999.9,N
1548686475.2,286047002.7,N
1548686495.1,286047002.5,N
1548686496.0,286047002.5,N
1548686515.8,286046999.8,N
1548686535.7,286046999.7,N
1548686555.5,286047002.2,N
1548686575.3,286047001.3,N
1548686595.2,286047000.2,N
1548686615.9,286047000.0,N
1548686635.7,286047001.2,N
1548686655.6,286047001.2,N
1548686675.4,286047001.2,N
1548686695.2,286046999.9,N
1548686715.1,286046999.9,N
1548686716.0,286046999.9,N
1548686735.8,286047002.4,N
1548686755.7,286047002.3,N
1548686775.5,286047002.4,N
1548686795.3,286047001.5,N
1548686815.2,286047003.7,Y
1548686835.0,286047002.1,P
1548686835.9,286047002.1,P
1548686855.8,286047002.3,P
1548686875.6,286047001.8,Y
1548686895.4,286046999.9,P
1548686915.3,286047000.8,N
1548686935.1,286046998.7,N
1548686955.8,286046998.6,N
1548686975.7,286046999.9,N
1548686995.5,286046998.1,N
1548687015.4,286046998.6,N
1548687035.2,286046999.5,N
1548687055.0,286046999.4,N
1548687055.9,286046999.4,N
1548687075.8,286046998.2,N
1548687095.6,286046998.5,N
1548687115.5,286046998.5,N
1548687135.3,286046998.4,N
1548687155.1,286046999.0,N
1548687175.9,286046998.9,N
1548687195.8,286046998.1,N
1548687215.6,286046998.6,N
1548687235.5,286047000.9,N
1548687255.3,286046996.9,Y
1548687275.1,286046996.9,P
1548687295.9,286046998.1,N
1548687315.7,286046998.4,N
1548687335.6,286046998.6,N
1548687355.4,286047000.7,N
1548687375.2,286046999.9,N
1548687395.1,286047000.0,N
1548687396.0,286047000.0,N
1548687415.8,286047000.0,N
1548687435.7,286047002.7,N
1548687455.5,286047002.5,N
1548687475.3,286047002.1,N
1548687495.2,286047002.1,N
1548687515.0,286046999.8,N
1548687515.9,286046999.8,N
1548687535.8,286046999.8,N
1548687555.6,286047002.0,N
1548687575.4,286047001.5,N
1548687595.3,286047002.2,N
